Date String (YYYY-MM-DD hh:mm:ss) UTC,Instrument flags,Ambient pressure (hPa),Sample flow (lpm),Bypass flow (lpm),Sample temperature (°C),Ambient temperature (°C),ASC tube jacket temperature (°C),LED temperature (°C),Box temperature (°C),Sample RH (%),Span deviation,Mass concentration (μg/m³),Mass concentration (μg/m³),Mass concentration (μg/m³)
DateTimeUTC,F1_M11,P_M11,Q1_M11,Q2_M11,T1_M11,T2_M11,T3_M11,T4_M11,T5_M11,U1_M11,ZSPAN_M11,X0_M11,X2_M11,X1_M11
2022-04-25 21:00:00,,0832.5,5.00,0.00,24.8,24.1,00.0,33.6,26.7,12.4,0000.0,0009.37,0004.58,0004.03
2022-04-25 21:01:00,,0832.5,5.00,0.00,24.8,24.2,00.0,33.6,26.7,12.3,0000.0,0009.27,0004.64,0004.04
2022-04-25 21:02:00,,0832.5,5.00,0.00,24.8,24.2,00.0,33.6,26.7,12.5,0000.0,0009.50,0004.71,0004.06
2022-04-25 21:03:00,,0832.5,5.00,0.00,24.9,24.2,00.0,33.6,26.8,12.7,0000.0,0009.60,0004.74,0004.06
2022-04-25 21:04:00,,0832.5,5.00,0.00,24.9,24.2,00.0,33.6,26.8,12.9,0000.0,0009.67,0004.75,0004.08
2022-04-25 21:05:00,,0832.5,5.00,0.00,24.9,24.3,00.0,33.7,26.8,13.0,0000.0,0009.73,0004.77,0004.10
2022-04-25 21:06:00,,0832.5,4.99,0.00,24.9,24.3,00.0,33.7,26.8,13.0,0000.0,0009.82,0004.81,0004.14
2022-04-25 21:07:00,,0832.5,5.00,0.00,25.0,24.3,00.0,33.7,26.8,12.9,0000.0,0009.82,0004.82,0004.15
2022-04-25 21:08:00,,0832.5,4.99,0.00,25.0,24.3,00.0,33.7,26.9,13.0,0000.0,0009.59,0004.74,0004.13
2022-04-25 21:09:00,,0832.5,5.00,0.00,25.0,24.3,00.0,33.7,26.9,13.1,0000.0,0009.77,0004.73,0004.12
2022-04-25 21:10:00,,0832.5,5.01,0.00,25.0,24.3,00.0,33.8,26.9,13.1,0000.0,0009.45,0004.75,0004.13
2022-04-25 21:11:00,,0832.4,5.00,0.00,25.0,24.4,00.0,33.8,26.9,13.1,0000.0,0009.53,0004.71,0004.14
2022-04-25 21:12:00,,0832.5,4.99,0.00,25.1,24.4,00.0,33.8,27.0,13.0,0000.0,0009.56,0004.73,0004.14
2022-04-25 21:13:00,,0832.4,4.99,0.00,25.1,24.4,00.0,33.8,27.0,13.0,0000.0,0009.43,0004.70,0004.15
2022-04-25 21:14:00,,0832.5,5.00,0.00,25.1,24.4,00.0,33.8,27.0,13.0,0000.0,0009.95,0004.69,0004.14
2022-04-25 21:15:00,,0832.5,5.01,0.00,25.1,24.5,00.0,33.9,27.0,13.2,0000.0,0009.95,0004.68,0004.14
2022-04-25 21:16:00,,0832.4,5.02,0.00,25.1,24.5,00.0,33.9,27.1,13.4,0000.0,0010.69,0004.67,0004.13
2022-04-25 21:17:00,,0832.5,5.00,0.00,25.2,24.5,00.0,33.9,27.1,13.3,0000.0,0010.98,0004.68,0004.12
2022-04-25 21:18:00,,0832.4,4.99,0.00,25.2,24.5,00.0,33.9,27.1,13.2,0000.0,0011.18,0004.67,0004.12
2022-04-25 21:19:00,,0832.4,4.99,0.00,25.2,24.5,00.0,33.9,27.1,13.0,0000.0,0011.39,0004.69,0004.12
2022-04-25 21:20:00,,0832.3,5.01,0.00,25.2,24.5,00.0,34.0,27.1,12.7,0000.0,0011.02,0004.67,0004.12
2022-04-25 21:21:00,,0832.3,5.01,0.00,25.2,24.6,00.0,34.0,27.2,12.4,0000.0,0010.64,0004.66,0004.10
2022-04-25 21:22:00,,0832.4,4.99,0.00,25.3,24.6,00.0,34.0,27.2,12.4,0000.0,0010.51,0004.66,0004.07
2022-04-25 21:23:00,,0832.3,5.00,0.00,25.3,24.6,00.0,34.0,27.2,12.4,0000.0,0010.43,0004.68,0004.07
2022-04-25 21:24:00,,0832.4,4.99,0.00,25.3,24.6,00.0,34.0,27.2,12.4,0000.0,0010.43,0004.67,0004.07
2022-04-25 21:25:00,,0832.4,5.02,0.00,25.3,24.6,00.0,34.0,27.2,12.3,0000.0,0009.96,0004.65,0004.07
2022-04-25 21:26:00,,0832.4,5.00,0.00,25.3,24.6,00.0,34.1,27.2,12.4,0000.0,0010.05,0004.63,0004.08
2022-04-25 21:27:00,,0832.3,4.99,0.00,25.4,24.7,00.0,34.1,27.3,12.4,0000.0,0009.61,0004.65,0004.08
2022-04-25 21:28:00,,0832.3,4.99,0.00,25.4,24.7,00.0,34.1,27.3,12.5,0000.0,0009.24,0004.66,0004.10
2022-04-25 21:29:00,,0832.3,5.01,0.00,25.4,24.7,00.0,34.1,27.3,12.4,0000.0,0009.09,0004.68,0004.13
2022-04-25 21:30:00,,0832.2,5.00,0.00,25.4,24.7,00.0,34.2,27.3,12.3,0000.0,0009.11,0004.72,0004.16
2022-04-25 21:31:00,,0832.2,4.99,0.00,25.4,24.7,00.0,34.2,27.4,12.4,0000.0,0009.03,0004.74,0004.18
2022-04-25 21:32:00,,0832.2,4.99,0.00,25.5,24.8,00.0,34.2,27.4,12.4,0000.0,0009.02,0004.76,0004.21
2022-04-25 21:33:00,,0832.2,5.01,0.00,25.5,24.8,00.0,34.2,27.4,12.3,0000.0,0009.07,0004.84,0004.24
2022-04-25 21:34:00,,0832.3,4.99,0.00,25.5,24.8,00.0,34.2,27.4,12.2,0000.0,0008.90,0004.84,0004.28
2022-04-25 21:35:00,,0832.2,5.00,0.00,25.5,24.8,00.0,34.2,27.4,12.2,0000.0,0008.97,0004.89,0004.30
2022-04-25 21:36:00,,0832.3,5.01,0.00,25.5,24.8,00.0,34.3,27.4,12.2,0000.0,0009.17,0004.94,0004.33
2022-04-25 21:37:00,,0832.3,4.99,0.00,25.5,24.8,00.0,34.3,27.4,12.3,0000.0,0009.65,0004.96,0004.35
2022-04-25 21:38:00,,0832.2,5.01,0.00,25.5,24.8,00.0,34.3,27.4,12.2,0000.0,0010.01,0004.98,0004.37
2022-04-25 21:39:00,,0832.3,4.99,0.00,25.5,24.8,00.0,34.3,27.4,12.2,0000.0,0010.37,0005.02,0004.40
2022-04-25 21:40:00,,0832.3,4.99,0.00,25.6,24.9,00.0,34.3,27.5,12.3,0000.0,0010.52,0005.08,0004.42
2022-04-25 21:41:00,,0832.2,5.00,0.00,25.6,24.9,00.0,34.3,27.5,12.4,0000.0,0010.41,0005.09,0004.43
2022-04-25 21:42:00,,0832.3,5.02,0.00,25.6,24.9,00.0,34.3,27.5,12.4,0000.0,0010.71,0005.15,0004.44
2022-04-25 21:43:00,,0832.3,5.00,0.00,25.6,24.9,00.0,34.4,27.5,12.4,0000.0,0011.30,0005.22,0004.47
2022-04-25 21:44:00,,0832.3,4.99,0.00,25.6,24.9,00.0,34.4,27.5,12.4,0000.0,0012.40,0005.27,0004.50
2022-04-25 21:45:00,,0832.3,5.01,0.00,25.6,24.9,00.0,34.4,27.5,12.4,0000.0,0012.46,0005.27,0004.52
2022-04-25 21:46:00,,0832.2,4.99,0.00,25.6,25.0,00.0,34.4,27.6,12.4,0000.0,0012.53,0005.27,0004.52
2022-04-25 21:47:00,,0832.1,4.99,0.00,25.7,25.0,00.0,34.4,27.6,12.4,0000.0,0012.51,0005.30,0004.53
2022-04-25 21:48:00,,0832.1,4.99,0.00,25.7,25.0,00.0,34.4,27.6,12.4,0000.0,0011.84,0005.32,0004.54
2022-04-25 21:49:00,,0832.1,5.00,0.00,25.7,25.0,00.0,34.5,27.6,12.3,0000.0,0011.92,0005.39,0004.56
2022-04-25 21:50:00,,0832.1,5.01,0.00,25.7,25.0,00.0,34.5,27.6,12.7,0000.0,0012.19,0005.40,0004.57
2022-04-25 21:51:00,,0832.1,5.00,0.00,25.7,25.0,00.0,34.5,27.6,12.7,0000.0,0012.83,0005.42,0004.59
2022-04-25 21:52:00,,0832.2,4.99,0.00,25.7,25.0,00.0,34.5,27.6,12.7,0000.0,0013.28,0005.47,0004.64
2022-04-25 21:53:00,,0832.2,4.98,0.00,25.7,25.0,00.0,34.5,27.6,12.6,0000.0,0013.55,0005.45,0004.66
2022-04-25 21:54:00,,0832.1,5.00,0.00,25.7,25.0,00.0,34.5,27.6,12.6,0000.0,0013.20,0005.45,0004.68
2022-04-25 21:55:00,,0832.2,5.01,0.00,25.7,25.0,00.0,34.5,27.7,12.5,0000.0,0012.10,0005.42,0004.68
2022-04-25 21:56:00,,0832.3,5.01,0.00,25.8,25.1,00.0,34.5,27.7,12.6,0000.0,0012.12,0005.44,0004.68
2022-04-25 21:57:00,,0832.2,4.99,0.00,25.8,25.1,00.0,34.6,27.7,12.6,0000.0,0012.47,0005.41,0004.69
2022-04-25 21:58:00,,0832.2,5.01,0.00,25.8,25.1,00.0,34.6,27.7,12.4,0000.0,0013.67,0005.39,0004.67
2022-04-25 21:59:00,,0832.2,5.00,0.00,25.8,25.1,00.0,34.6,27.7,12.4,0000.0,0014.97,0005.42,0004.66
